Reflectivity
-20 -20 -20 -20 -20 -20 -20 -20 -20 -20 -20 -20 -20 -20 -20 -20 -20 -20 -20 -20 -20 -20 -20 -20 -20 -20 -20 -20 -20 -20 -20 -20 -20 -20 -20 -20 -20 -20 -20 -20 -20 -20 -20 -20 -20 -20 -20
12 -3 -2 -15 -6 -17 -20 -20 -20 -20 -20 -20 -20 -20 -20 -20 -20 -20 -20 -15 -20 -20 -20 -20 -20 -20 -20 -20 -20 -20 -20 -20 -20 -20 -20 -20 -20 -20 -20 -20 -20 -20 -20 -20 -20 -20 -20
24 29 6 -4 2 2 10 -15 -14 -20 -20 -20 -20 -20 -20 -20 -20 -19 -20 -20 -19 -19 -20 -20 -20 -20 -20 -18 -4 -20 -20 -20 -20 -20 -20 -20 -20 -20 -20 -20 -20 -20 -20 -20 -20 -20 -20
24 28 12 18 19 15 16 -2 -9 -11 -18 -20 -20 -20 -20 -20 -20 -20 -20 -19 5 1 -17 -20 -20 -20 -20 -12 -16 -20 -20 -20 -20 -20 -20 -20 -20 -20 -20 -20 -20 -20 -20 -20 -20 -20 -20
26 22 25 28 25 24 20 16 12 2 -12 -20 -20 -20 -20 -20 -20 -12 -19 -11 -20 -6 2 -19 -20 -20 -20 -20 -20 -20 -20 -20 -20 -20 -20 -20 -20 -20 -20 -20 -20 -20 -20 -20 -20 -20 -20
32 20 16 29 27 19 33 26 21 21 19 14 8 9 5 -19 -20 -17 -18 -20 -12 -20 -20 -20 -20 -20 -20 -20 -20 -20 -20 -20 -20 -20 -20 -20 -20 -20 -20 -20 -20 -20 -20 -20 -20 -20 -20
16 20 23 15 22 -0 12 26 31 29 23 21 22 23 4 17 1 7 -13 3 -9 -20 -20 -20 -20 -20 -20 -20 -20 -20 -20 -20 -20 -20 -20 -20 -20 -20 -20 -20 -20 -20 -20 -20 -20 -20 -20
-20 -5 25 -9 -1 11 23 28 22 32 19 16 25 23 9 5 6 17 14 14 4 -20 -20 -20 -20 -20 -20 -20 -20 -20 -20 -20 -20 -20 -20 -20 -20 -20 -20 -20 -20 -20 -20 -20 -20 -20 -20
-15 -12 -20 -4 24 -5 -20 -6 31 29 29 27 25 -4 11 16 16 17 4 11 18 11 7 -3 -20 -20 -20 -20 -20 -20 -20 -20 -20 -20 -20 -20 -20 -20 -20 -20 -20 -20 -20 -20 -20 -20 -20
0 18 16 -10 6 -2 11 3 -14 25 29 26 28 23 19 20 13 -13 22 25 23 27 20 -20 -20 -20 -20 -20 -20 -20 -20 -20 -20 -20 -20 -20 -20 -20 -20 -20 -20 -20 -20 -20 -20 -20 -20
7 16 19 19 15 13 4 3 -5 12 25 18 24 22 22 18 8 -19 -13 2 26 24 17 -20 -20 -20 -20 -20 -20 -20 -20 -20 -20 -20 -20 -20 -20 -20 -20 -20 -20 -20 -20 -19 -20 -20 -20
18 20 19 29 19 20 27 26 24 22 6 19 16 24 26 17 21 12 6 13 22 33 13 -20 -20 -20 -20 -20 -20 -20 -20 -20 -20 -20 -20 -20 -20 -20 -20 -20 -20 -20 -20 -20 -20 -20 -20
20 23 25 17 20 24 29 24 29 30 25 31 24 20 20 20 12 19 31 29 32 30 -13 -13 -20 -20 -20 -20 -20 -20 -20 -20 -20 -20 -20 -20 -20 -20 -20 -20 -20 -20 -20 -20 -20 -20 -20
28 26 28 35 20 28 26 30 32 25 27 20 20 19 12 7 22 24 30 34 25 2 -6 15 -19 -20 -20 -20 -20 -20 -20 -20 -20 -20 -20 -20 -20 -19 -20 -20 -20 -20 -20 -20 5 -20 -20
15 30 31 32 33 31 30 28 31 27 30 27 27 22 16 -1 14 10 26 26 29 -15 -18 30 1 -20 -20 -20 -20 -19 -20 -20 -20 -20 -20 -20 -18 1 -20 -19 -20 -20 -2 -18 4 -18 -7
-20 -19 28 33 29 30 32 32 28 17 13 27 29 22 24 1 14 15 30 17 -17 -20 14 5 16 -13 -20 -20 9 -19 -20 -4 -20 -3 -4 -16 -20 -8 -16 -20 -20 -20 -5 -2 18 10 -10
-20 -20 -15 15 26 28 31 29 20 14 7 26 40 30 28 32 32 27 22 -1 -12 2 17 6 -10 11 -15 -20 -4 -18 -20 -20 -20 -20 -18 -20 -20 -20 10 -20 -20 -17 -6 10 -11 -7 5
-20 -20 -20 -20 3 16 24 22 23 23 21 32 17 29 30 24 32 35 17 -1 -20 -5 5 6 11 -4 -20 -18 -8 -20 -20 12 -20 -20 -20 -20 -12 -20 -20 -20 4 -20 -1 -12 -8 -17 -0
-20 -20 -20 -20 -20 -18 14 17 13 21 22 31 34 25 34 14 23 28 10 0 -14 -2 5 3 -20 -20 -20 -20 -11 -19 -15 -20 -20 -20 -7 4 2 -5 -20 -14 12 8 1 -12 -10 -16 -19
-20 -20 -20 -20 -20 -20 -10 2 7 15 14 25 34 28 38 30 32 35 33 9 3 -7 -11 -15 -20 -15 -20 -20 -20 -20 -20 -11 -20 -20 -20 -20 -20 -20 -20 -8 -9 2 25 -11 1 14 0
-20 -20 -20 -20 -20 -20 -20 -20 -20 -6 10 9 28 23 19 15 21 33 27 33 3 4 27 -2 -2 -20 9 9 -10 -20 -20 -18 -11 -20 -20 -20 -20 -20 -20 -20 -20 -20 -20 -12 1 -8 10
-20 -20 -20 -20 -20 -20 -20 -20 -20 -20 -2 20 11 3 24 35 20 21 21 26 23 18 16 32 29 29 16 29 21 3 19 11 14 -9 -20 -20 -20 -20 -20 -20 -2 8 -20 -20 -20 -20 -6
-20 -20 -20 -20 -20 -20 -20 -20 -20 -20 -20 -5 19 10 14 19 31 17 10 6 -6 13 14 1 31 22 -9 34 33 31 21 12 14 19 33 11 3 -4 1 -20 -20 19 -16 -20 -20 -20 -20
5 -20 -20 -20 -20 -20 -20 -20 -20 -20 -20 12 -20 22 22 7 11 15 16 14 10 3 12 7 -2 5 2 -7 12 -8 -14 -20 -20 -5 -4 3 18 18 6 13 13 -9 -20 -20 -20 -12 -1
-20 -19 -15 4 -20 -20 -20 -20 -20 -20 -20 -20 -20 -20 16 2 -19 -18 -6 10 3 3 -9 7 9 -5 23 -12 5 -18 -11 -6 -19 -20 -20 -11 14 19 20 12 -20 -20 -20 -20 -20 -19 -20
-20 -20 -18 5 -18 -19 -20 -20 -20 -20 -20 -20 2 -20 11 9 -20 -20 -20 -20 -20 -20 8 -20 -16 -4 6 10 -8 16 -5 7 -11 -20 -20 -20 12 19 18 16 8 -20 -20 -20 -15 15 -14
-20 -15 -13 -1 -4 -8 -20 -20 -20 -20 -20 -20 -20 -20 -2 13 -20 -20 -20 -10 -20 -20 -20 -20 -20 -7 2 -6 7 -2 3 -20 0 16 12 -3 3 10 13 17 -3 -20 -20 1 -5 -20 -20
17 -19 -16 -9 -20 -20 -20 -20 -20 -20 -20 -20 -20 -20 17 9 -12 -20 -20 -20 -20 -20 -12 -20 1 -1 5 9 -3 2 6 -20 -3 -20 -20 4 21 12 -1 17 19 -20 -20 -10 1 -17 -20
0 17 1 -20 -20 1 1 12 -20 -20 -20 -20 -15 18 -17 16 -12 -12 -20 -20 -19 -20 -20 -20 -18 -20 13 18 18 20 16 17 4 15 -20 9 -13 17 20 -19 -20 -20 -20 -20 -8 -20 -20
Wind_Speed
20 19 19 18 17 16 16 15 14 13 12 12 11 11 11 10 10 10 9 7 7 8 10 12 15 18 12 9 17 5 6 7 6 11 11 13 13 15 15 14 16 16 15 17 20 13 13
19 19 18 18 18 17 17 16 14 13 12 12 11 10 11 10 10 10 10 7 7 7 9 10 14 19 11 20 12 10 7 7 11 13 13 13 11 13 11 16 18 17 19 16 16 17 15
21 21 21 19 18 18 17 15 14 13 13 12 11 11 11 11 10 10 10 8 8 8 10 9 10 9 13 24 15 22 22 17 13 16 14 14 12 9 11 15 12 14 15 18 20 20 21
21 21 22 20 19 17 16 15 15 14 13 12 12 11 11 11 10 10 9 9 8 7 9 11 9 8 12 18 18 22 19 19 18 16 17 16 17 12 15 14 19 18 18 18 18 22 21
23 22 22 21 19 18 17 15 14 14 13 13 12 11 11 11 10 9 8 6 6 8 10 9 8 8 14 17 14 20 20 21 17 19 15 12 10 14 14 16 15 14 15 20 21 18 12
22 22 22 21 20 18 17 17 15 15 13 11 9 11 10 10 9 6 7 2 5 7 9 10 10 11 15 14 14 12 11 12 13 7 10 12 9 12 14 15 15 16 20 19 17 11 14
15 22 21 20 18 18 18 16 16 13 13 10 10 9 9 9 12 12 7 2 4 8 10 14 13 10 5 15 2 12 10 10 11 12 16 14 12 18 22 21 22 21 20 22 18 18 17
16 16 19 22 21 20 20 17 16 13 11 11 10 9 14 13 11 8 1 4 8 3 12 21 26 24 24 22 12 12 12 13 16 20 19 18 20 21 22 21 21 19 16 18 18 18 18
6 16 18 18 19 20 20 19 17 14 12 12 14 16 16 13 10 3 6 10 6 10 7 15 27 32 25 25 27 21 18 18 20 19 20 23 16 25 22 20 20 20 17 18 21 20 22
18 19 3 16 18 17 18 18 20 21 20 18 18 17 16 15 5 7 4 7 2 3 7 11 18 18 26 21 24 17 26 24 22 25 22 23 22 24 23 18 14 20 17 20 21 18 14
13 14 14 16 8 10 17 20 21 21 21 19 18 16 16 12 2 6 4 5 5 1 5 6 11 4 4 17 1 10 18 25 30 25 19 22 19 20 25 25 21 22 20 18 20 14 19
10 9 12 12 14 9 10 11 17 18 19 18 16 16 13 2 1 2 6 5 2 3 10 7 9 10 11 17 16 2 4 16 19 22 21 27 23 22 15 14 15 17 19 17 13 11 18
11 7 7 9 9 8 8 12 12 16 16 17 16 17 8 4 3 4 3 1 3 7 8 9 9 12 15 14 16 14 8 11 13 15 20 25 29 27 23 20 14 14 10 9 10 11 16
11 7 6 3 8 5 6 1 11 13 16 17 16 15 4 3 7 7 3 3 7 10 14 7 2 10 12 12 12 14 13 12 19 18 14 13 12 26 19 27 19 16 15 9 11 11 15
10 11 8 9 7 10 10 9 8 5 18 17 16 4 4 3 9 5 4 5 8 9 6 6 13 10 12 11 7 10 15 15 16 19 16 9 12 3 8 6 18 16 18 17 20 16 9
13 12 11 11 7 9 9 7 7 7 9 17 4 4 2 8 7 4 4 7 11 13 9 3 6 9 7 12 12 15 12 8 11 15 4 7 11 10 5 5 8 12 12 6 2 4 9
12 11 9 9 5 9 6 6 5 10 13 8 2 4 3 3 2 4 6 11 13 17 8 10 12 14 13 15 12 11 10 1 4 10 3 6 8 11 6 6 8 10 12 13 9 7 3
10 10 8 8 7 6 6 5 7 6 10 7 1 3 2 1 4 2 9 9 8 14 14 8 4 9 9 9 11 12 13 4 7 8 8 4 4 10 15 16 9 14 13 10 10 17 7
6 6 7 6 6 6 6 6 4 4 2 3 2 2 2 2 4 4 6 9 10 7 16 13 11 13 15 12 8 10 10 8 5 2 5 3 1 6 9 13 2 7 9 9 12 6 12
5 4 5 4 4 5 4 4 4 5 4 1 3 1 1 1 2 3 7 4 10 7 16 15 17 15 18 17 18 16 18 9 7 9 4 2 5 8 11 1 3 3 4 5 5 3 7
2 2 3 3 2 2 4 4 5 5 6 2 1 4 5 1 2 5 5 1 1 3 8 6 4 17 16 19 18 19 20 18 13 9 8 6 13 14 15 16 13 9 10 14 13 13 8
5 3 3 3 2 1 1 2 4 5 4 3 2 3 5 1 7 7 3 1 2 3 4 5 5 10 10 10 13 10 10 14 11 16 16 14 10 13 17 17 17 17 19 20 19 21 20
8 8 7 6 5 4 4 3 2 4 3 2 2 4 3 3 3 6 6 8 8 6 5 5 2 6 8 7 11 11 12 12 12 13 14 12 11 14 16 16 17 15 25 20 21 21 20
9 9 10 9 8 7 6 5 4 5 5 3 3 4 4 4 7 9 10 16 12 10 10 10 9 6 4 14 14 12 14 16 16 17 15 14 18 13 11 12 16 18 17 21 24 21 16
11 12 11 13 12 10 9 7 6 5 6 6 3 3 1 4 8 11 11 12 11 9 10 11 11 10 7 7 7 9 9 13 17 22 19 17 17 12 12 12 16 15 19 17 12 13 15
15 15 16 15 13 13 11 10 9 7 6 5 6 3 1 3 6 12 10 9 8 8 11 10 11 6 4 2 3 5 6 7 8 10 23 21 18 15 10 11 17 18 22 21 12 5 22
20 20 20 19 17 15 14 13 12 11 8 6 5 5 4 4 9 10 4 5 6 7 6 8 5 7 7 3 8 10 9 13 7 9 11 18 19 18 15 16 14 17 15 5 9 9 6
23 22 21 20 19 18 17 15 14 13 11 7 6 5 6 4 10 10 9 8 8 7 7 6 4 4 7 6 5 7 9 12 16 21 21 18 9 17 18 14 22 20 18 13 15 7 5
19 26 24 23 20 18 17 18 16 14 13 11 7 6 6 4 6 10 11 13 14 15 10 9 9 11 5 4 6 4 6 5 12 13 19 20 18 6 10 12 9 8 15 14 14 14 10
Wind_Direction
216 213 214 217 215 215 219 221 221 218 227 233 226 236 240 243 251 256 251 246 277 298 320 329 331 328 328 306 262 248 169 216 258 260 275 292 292 289 281 283 286 274 275 268 275 265 275
213 212 214 214 216 217 217 219 217 218 221 227 233 236 239 243 251 254 264 256 265 291 307 320 328 323 297 281 268 179 217 273 268 282 273 274 272 306 306 274 273 286 288 293 290 284 260
212 211 213 212 217 218 218 217 215 215 219 223 226 227 236 241 241 254 260 259 251 264 285 303 320 309 277 253 296 305 298 281 262 275 276 280 286 269 295 300 288 291 285 273 264 254 249
223 217 216 211 210 213 216 214 214 216 219 222 224 225 228 232 236 238 247 249 246 277 292 298 308 297 263 266 269 269 274 273 259 250 259 267 279 271 267 278 284 280 266 270 268 251 228
228 222 215 214 214 211 211 209 213 215 215 220 220 218 225 229 230 224 229 234 251 264 259 275 281 215 274 266 241 247 247 254 254 245 245 247 251 253 263 250 260 243 255 257 266 250 214
227 225 220 217 212 212 210 212 211 214 216 214 226 230 228 227 226 171 141 195 269 272 233 244 244 283 238 247 262 216 243 217 226 228 221 221 225 243 222 237 239 249 243 234 245 269 201
234 222 216 210 206 203 209 208 209 212 209 199 220 227 239 232 145 139 129 238 271 236 225 217 199 235 252 219 283 245 217 211 242 233 225 201 216 227 231 226 237 258 273 286 290 299 304
223 211 221 210 201 193 202 204 191 191 195 208 205 159 136 140 142 151 212 203 241 338 290 231 254 252 253 279 272 233 210 216 217 229 227 238 227 241 245 246 253 253 268 272 276 273 275
335 210 201 203 203 198 198 197 183 179 176 154 145 141 138 134 127 141 221 213 21 2 268 255 242 241 237 241 251 237 245 215 238 225 234 231 239 224 238 256 260 253 247 264 276 285 287
40 37 169 207 203 198 198 187 172 152 147 152 147 147 146 143 163 167 215 233 312 62 273 265 215 246 228 218 257 243 235 245 230 247 244 247 253 265 266 251 255 265 264 259 257 267 267
52 43 36 51 99 171 176 166 162 155 152 155 152 157 159 182 19 172 34 81 39 114 268 78 125 55 197 192 242 189 226 228 238 239 238 249 247 240 250 254 260 261 272 266 281 289 297
63 58 52 41 48 101 107 130 147 151 152 153 155 149 138 121 53 44 7 46 75 179 237 184 141 188 180 208 238 105 238 219 225 249 251 258 260 269 281 259 261 278 269 271 258 264 257
89 84 86 71 76 40 142 145 155 153 154 163 156 154 167 163 150 133 83 84 127 217 245 174 183 178 199 187 214 228 195 191 201 218 241 245 249 256 256 255 249 265 247 243 235 219 248
108 106 108 132 103 119 79 85 185 174 174 171 162 155 195 147 141 141 115 57 215 236 254 4 31 178 216 220 204 204 231 212 217 239 274 263 246 222 225 234 234 233 229 237 232 246 262
122 98 105 161 169 117 101 90 59 229 184 173 153 161 153 206 149 160 150 190 212 236 301 140 290 258 245 226 272 217 230 238 238 206 235 282 244 83 352 238 212 235 251 242 265 280 300
91 91 85 72 53 101 109 93 82 38 196 167 148 140 129 163 159 168 206 223 227 257 311 283 239 284 258 248 233 232 236 18 252 263 254 282 286 282 107 19 283 258 272 280 69 228 238
95 92 89 88 87 84 77 126 73 66 72 141 84 132 22 8 148 215 204 222 224 268 314 261 252 250 261 254 277 246 256 46 307 319 311 290 269 271 268 199 255 233 240 251 253 181 258
87 88 85 87 69 67 84 66 135 126 103 46 7 141 1 236 186 256 217 217 257 254 204 231 262 281 279 282 279 260 243 48 320 331 283 91 318 282 271 259 337 311 299 271 243 241 244
76 83 87 81 65 62 58 53 38 173 192 100 76 70 311 73 198 226 237 231 257 247 253 206 235 241 253 255 246 239 256 129 163 243 331 31 291 283 273 280 262 347 352 359 332 298 246
86 87 89 82 76 87 54 29 36 19 0 111 146 135 266 52 133 307 237 245 231 247 263 271 271 266 256 249 239 246 250 218 205 217 136 240 211 219 248 214 129 186 307 5 66 326 327
148 142 106 98 85 34 6 17 26 9 0 319 103 200 203 204 177 239 308 333 87 321 1 291 310 243 241 238 249 253 247 244 188 179 184 229 237 237 246 256 197 207 221 235 237 233 218
217 207 208 205 205 208 318 349 353 351 348 232 191 230 154 225 236 180 80 294 2 87 21 358 25 358 359 296 242 274 303 277 222 206 213 218 236 249 255 252 218 222 233 234 235 232 225
211 213 209 220 226 227 241 263 302 317 301 338 321 323 331 329 221 185 202 234 259 321 228 212 314 326 343 27 343 319 286 262 245 266 236 233 246 233 241 245 260 241 244 249 240 238 236
236 222 221 219 220 225 227 238 248 274 290 252 238 250 219 263 230 232 232 224 237 253 251 279 274 291 340 333 307 300 279 267 257 252 248 247 224 235 248 244 243 243 241 233 240 246 255
246 237 239 234 227 230 229 232 241 259 280 280 274 255 343 269 281 275 254 197 206 216 205 249 261 278 118 308 331 307 251 230 240 241 242 229 245 238 233 233 251 274 233 238 229 246 255
244 240 237 232 225 225 230 228 229 236 259 276 278 288 280 270 248 259 274 287 278 256 214 232 243 231 294 273 230 249 246 305 233 216 222 235 232 241 213 234 240 242 242 249 256 206 252
243 238 235 233 230 230 226 224 224 223 227 246 255 259 265 245 274 289 278 272 249 258 259 273 274 159 172 223 243 250 254 272 265 274 247 212 228 233 240 245 248 251 241 200 209 240 262
241 232 232 228 224 220 220 216 215 218 217 227 248 245 243 249 270 293 287 280 268 266 266 278 311 247 161 217 238 241 246 253 256 252 259 261 236 226 226 236 243 237 252 182 214 267 261
250 230 226 220 220 217 217 212 212 212 210 213 253 209 235 242 281 312 292 289 290 290 291 285 266 251 206 242 234 267 260 270 269 265 255 248 245 234 237 236 256 251 239 258 204 199 207